Terminal Aerodrome Forecast
Issued by NWS Spokane, WA

Home | Current Version | Previous Version | Text Only | Print | Product List | Glossary On
Versions: 1 2 3 4 5 6 7 8 9 10 11 12
000
FTUS46 KOTX 181720
TAFLWS
TAF
KLWS 181720Z 1818/1918 02003KT P6SM SKC
     FM182100 32009G17KT P6SM SCT250
     FM190300 30007KT P6SM BKN250
     FM191200 14003KT P6SM SKC=

USA.gov is the U.S. government's official web portal to all federal, state and local government web resources and services.